Change the Weather History Date:

Friday, March 22, 2013

  Actual Average Record
Temperature  
Mean Temperature 43 °F 58 °F  
Max Temperature 46 °F 69 °F 89 °F (1907)
Min Temperature 40 °F 46 °F 25 °F (1915)
Degree Days  
Heating Degree Days 22 8  
Month to date heating degree days 275 236  
Since 1 July heating degree days 2221 2430  
Cooling Degree Days 0 1  
Month to date cooling degree days 8 10  
Year to date cooling degree days 12 14  
Moisture  
Dew Point 43 °F    
Average Humidity 95    
Maximum Humidity 100    
Minimum Humidity 89    
Precipitation  
Precipitation 0.26 in 0.14 in 1.38 in (1930)
Month to date precipitation 1.19 3.01  
Year to date precipitation 6.64 10.40  
Snow  
Snow 0.00 in - - ()
Month to date snowfall 0.0  
Since 1 July snowfall 2.1  
Snow Depth 0.00 in    
Sea Level Pressure  
Sea Level Pressure 29.79 in    
Wind  
Wind Speed 9 mph (ENE)    
Max Wind Speed 15 mph    
Max Gust Speed 20 mph    
Visibility 3 miles    
Events Rain , Thunderstorm    
T = Trace of Precipitation, MM = Missing Value Source: NWS Daily Summary

Daily Weather History Graph

Daily Weather History Graph

Search for Another Location

Airport or City:

Trip Planner

Search our weather history database for the weather conditions in past years. The results will help you decide how hot, cold, wet, or windy it might be!

Date:

Astronomy

Mar. 22, 2013 Rise Set
Actual Time 7:16 AM CDT 7:29 PM CDT
Civil Twilight 6:51 AM CDT 7:54 PM CDT
Nautical Twilight 6:22 AM CDT 8:23 PM CDT
Astronomical Twilight 5:53 AM CDT 8:52 PM CDT
Moon 3:08 PM CDT (3/22) 4:04 AM CDT (3/22)
Length of Visible Light 13h 02m
Length of Day
12h 12m
Waxing Gibbous, 77% of the Moon is Illuminated
Mar 22
Waxing Gibbous
Mar 27
Full
Apr 2
Last Quarter
Apr 10
New
Apr 18
First Quarter

Hourly Weather History & Observations

Time (CDT) Temp. Windchill Dew Point Humidity Pressure Visibility Wind Dir Wind Speed Gust Speed Precip Events Conditions
12:53 AM 42.1 °F 37.7 °F 39.0 °F 89% 29.76 in 10.0 mi East 6.9 mph - 0.00 in   Overcast
1:15 AM 41.0 °F 35.8 °F 39.2 °F 93% 29.76 in 10.0 mi East 8.1 mph - 0.00 in Rain Light Rain
1:53 AM 41.0 °F 36.4 °F 39.0 °F 93% 29.75 in 7.0 mi East 6.9 mph - 0.01 in Rain Light Rain
2:03 AM 41.0 °F 35.2 °F 39.2 °F 93% 29.76 in 6.0 mi ENE 9.2 mph - 0.00 in Rain , Thunderstorm Light Rain
2:28 AM 41.0 °F 34.7 °F 39.2 °F 93% 29.76 in 1.8 mi NE 10.4 mph - 0.15 in Rain , Thunderstorm Heavy Thunderstorms and Rain
2:36 AM 41.0 °F 35.8 °F 39.2 °F 93% 29.77 in 3.0 mi ENE 8.1 mph - 0.16 in Rain Light Rain
2:53 AM 41.0 °F 37.1 °F 41.0 °F 100% 29.78 in 3.0 mi ENE 5.8 mph - 0.16 in Rain Light Rain
3:05 AM 39.2 °F 34.2 °F 39.2 °F 100% 29.76 in 2.5 mi ENE 6.9 mph - 0.02 in Rain Light Rain
3:27 AM 39.2 °F 34.2 °F 39.2 °F 100% 29.75 in 2.0 mi ENE 6.9 mph - 0.05 in Rain Light Rain
3:36 AM 39.2 °F 33.0 °F 39.2 °F 100% 29.75 in 2.5 mi ENE 9.2 mph - 0.05 in Rain Light Rain
3:53 AM 39.9 °F 34.5 °F 39.9 °F 100% 29.74 in 2.5 mi East 8.1 mph - 0.05 in Rain Light Rain
4:03 AM 39.2 °F 32.5 °F 39.2 °F 100% 29.73 in 2.5 mi East 10.4 mph 17.3 mph 0.01 in Rain Light Rain
4:13 AM 39.2 °F 32.0 °F 39.2 °F 100% 29.74 in 3.0 mi ENE 11.5 mph 17.3 mph 0.01 in Rain Light Rain
4:53 AM 41.0 °F 34.3 °F 41.0 °F 100% 29.76 in 3.0 mi ENE 11.5 mph - 0.01 in Rain Light Rain
5:53 AM 41.0 °F 34.7 °F 41.0 °F 100% 29.76 in 3.0 mi ENE 10.4 mph 17.3 mph 0.00 in   Overcast
6:53 AM 42.1 °F 37.1 °F 42.1 °F 100% 29.78 in 5.0 mi East 8.1 mph - N/A   Overcast
7:03 AM 42.8 °F 38.6 °F 42.8 °F 100% 29.78 in 5.0 mi ENE 6.9 mph - N/A   Overcast
7:53 AM 42.1 °F 37.7 °F 42.1 °F 100% 29.80 in 3.0 mi East 6.9 mph - 0.00 in Rain Light Rain
8:00 AM 42.8 °F 40.1 °F 42.8 °F 100% 29.80 in 3.0 mi ENE 4.6 mph - 0.00 in   Overcast
8:53 AM 43.0 °F 39.5 °F 43.0 °F 100% 29.81 in 3.0 mi ENE 5.8 mph - 0.00 in   Overcast
9:39 AM 42.8 °F 38.0 °F 42.8 °F 100% 29.83 in 2.5 mi ENE 8.1 mph - 0.01 in   Overcast
9:53 AM 43.0 °F 36.8 °F 43.0 °F 100% 29.84 in 1.8 mi NE 11.5 mph - 0.01 in   Overcast
10:08 AM 42.8 °F 36.6 °F 42.8 °F 100% 29.83 in 1.2 mi NE 11.5 mph - N/A   Overcast
10:53 AM 44.1 °F 39.5 °F 44.1 °F 100% 29.84 in 1.0 mi ENE 8.1 mph - N/A   Overcast
11:53 AM 45.0 °F 40.6 °F 45.0 °F 100% 29.83 in 1.0 mi ENE 8.1 mph - N/A   Overcast
12:53 PM 45.0 °F 40.6 °F 45.0 °F 100% 29.82 in 1.0 mi ENE 8.1 mph - N/A   Overcast
1:53 PM 46.0 °F 41.9 °F 46.0 °F 100% 29.80 in 1.0 mi ENE 8.1 mph - N/A   Overcast
2:02 PM 46.4 °F 43.5 °F 46.4 °F 100% 29.79 in 0.8 mi ENE 5.8 mph - N/A   Overcast
2:53 PM 46.0 °F 42.5 °F 46.0 °F 100% 29.78 in 0.8 mi ENE 6.9 mph - N/A   Overcast
3:48 PM 46.4 °F 41.9 °F 46.4 °F 100% 29.78 in 1.0 mi NE 9.2 mph - N/A   Overcast
3:53 PM 46.0 °F 41.4 °F 46.0 °F 100% 29.78 in 1.0 mi ENE 9.2 mph - N/A   Overcast
4:53 PM 46.0 °F 40.6 °F 46.0 °F 100% 29.79 in 1.0 mi NE 11.5 mph - N/A   Overcast
5:48 PM 46.4 °F 41.1 °F 46.4 °F 100% 29.80 in 1.5 mi NE 11.5 mph - N/A   Overcast
5:53 PM 46.0 °F 41.0 °F 46.0 °F 100% 29.79 in 1.5 mi NE 10.4 mph - N/A   Overcast
6:07 PM 44.6 °F 38.8 °F 44.6 °F 100% 29.80 in 1.2 mi NE 11.5 mph 19.6 mph N/A   Overcast
6:22 PM 44.6 °F 39.2 °F 44.6 °F 100% 29.81 in 1.5 mi NE 10.4 mph - N/A   Overcast
6:41 PM 44.6 °F 38.4 °F 44.6 °F 100% 29.81 in 2.5 mi NE 12.7 mph - N/A   Overcast
6:53 PM 46.0 °F 41.0 °F 46.0 °F 100% 29.82 in 2.5 mi NE 10.4 mph 16.1 mph N/A   Overcast
7:13 PM 46.4 °F 42.4 °F 46.4 °F 100% 29.83 in 1.5 mi NE 8.1 mph - N/A   Overcast
7:34 PM 44.6 °F 40.7 °F 44.6 °F 100% 29.83 in 2.5 mi NE 6.9 mph 17.3 mph N/A   Overcast
7:45 PM 44.6 °F 39.2 °F 44.6 °F 100% 29.83 in 3.0 mi NE 10.4 mph - N/A   Overcast
7:53 PM 45.0 °F 40.1 °F 45.0 °F 100% 29.83 in 3.0 mi NE 9.2 mph - N/A   Overcast
8:53 PM 45.0 °F 40.1 °F 45.0 °F 100% 29.84 in 4.0 mi NE 9.2 mph - N/A   Overcast
9:53 PM 44.1 °F 39.5 °F 44.1 °F 100% 29.84 in 3.0 mi ENE 8.1 mph - N/A   Overcast
10:53 PM 44.1 °F 38.6 °F 44.1 °F 100% 29.84 in 4.0 mi ENE 10.4 mph 17.3 mph N/A   Overcast
11:53 PM 45.0 °F 40.1 °F 45.0 °F 100% 29.85 in 3.0 mi ENE 9.2 mph - N/A   Overcast